Baton Rouge, LA

7:03 PM CDT on October 14, 2019 (GMT -0500)
Baton Rouge Metro-Ryan

Weather History for KBTR - August, 2019

Change the Weather History Date:

Saturday, August 24, 2019

  Actual Average Record
Temperature  
Mean Temperature 83 °F 83 °F  
Max Temperature 91 °F 92 °F 103 °F (1921)
Min Temperature 74 °F 73 °F 63 °F (2009)
Degree Days  
Heating Degree Days 0 0  
Month to date heating degree days 0 0  
Since 1 June heating degree days 0 0  
Since 1 July heating degree days 0 0  
Cooling Degree Days 18 18  
Month to date cooling degree days 479 432  
Year to date cooling degree days 2213 2037  
Since 1 June cooling degree days 1542 1472  
Growing Degree Days 32 (Base 50)    
Moisture  
Dew Point 74 °F    
Average Humidity 77    
Maximum Humidity 94    
Minimum Humidity 59    
Precipitation  
Precipitation 0.26 in 0.18 in 3.04 in (2008)
Month to date precipitation 6.56 4.62  
Year to date precipitation 47.98 40.51  
Snow  
Snow 0.00 in - - ()
Month to date snowfall 0.0  
Since 1 June snowfall 0.0  
Since 1 July snowfall 0.0  
Snow Depth 0.00 in    
Sea Level Pressure  
Sea Level Pressure 29.97 in    
Wind  
Wind Speed 6 mph (East)    
Max Wind Speed 31 mph    
Max Gust Speed 39 mph    
Visibility 10 miles    
Events Rain , Thunderstorm    
T = Trace of Precipitation, MM = Missing Value Source: NWS Daily Summary

Daily Weather History Graph

Daily Weather History Graph

Search for Another Location

Airport or City:

Astronomy

Aug. 24, 2019 Rise Set
Actual Time 6:36 AM CDT 7:37 PM CDT
Civil Twilight 6:11 AM CDT 8:01 PM CDT
Nautical Twilight 5:42 AM CDT 8:31 PM CDT
Astronomical Twilight 5:11 AM CDT 9:01 PM CDT
Moon 12:38 AM CDT (8/24) 2:42 PM CDT (8/24)
Length of Visible Light 13h 50m
Length of Day
13h 00m
Last Quarter, 39% of the Moon is Illuminated
Aug 24
Last Quarter
Aug 30
New
Sep 5
First Quarter
Sep 13
Full
Sep 21
Last Quarter

Hourly Weather History & Observations

Time (CDT) Temp. Heat Index Dew Point Humidity Pressure Visibility Wind Dir Wind Speed Gust Speed Precip Events Conditions
12:53 AM 75.9 °F - 73.0 °F 91% 29.97 in 10.0 mi NE 3.5 mph - N/A   Clear
1:53 AM 75.9 °F - 73.9 °F 94% 29.97 in 10.0 mi NE 3.5 mph - N/A   Clear
2:53 AM 75.9 °F - 73.9 °F 94% 29.97 in 10.0 mi East 3.5 mph - N/A   Clear
3:53 AM 75.9 °F - 73.9 °F 94% 29.98 in 10.0 mi Calm Calm - N/A   Clear
5:53 AM 77.0 °F - 73.9 °F 90% 29.99 in 10.0 mi NE 3.5 mph - N/A   Scattered Clouds
6:53 AM 75.9 °F - 73.9 °F 94% 30.01 in 10.0 mi East 3.5 mph - N/A   Scattered Clouds
7:53 AM 78.1 °F - 75.0 °F 90% 30.01 in 10.0 mi ENE 3.5 mph - N/A   Mostly Cloudy
8:53 AM 79.0 °F - 75.0 °F 88% 30.01 in 9.0 mi Variable 6.9 mph - 0.00 in Rain Light Rain
9:53 AM 82.0 °F 87.9 °F 73.9 °F 76% 30.01 in 10.0 mi South 4.6 mph - 0.00 in   Partly Cloudy
10:53 AM 86.0 °F 93.0 °F 73.0 °F 65% 30.01 in 10.0 mi Variable 5.8 mph - N/A   Clear
11:53 AM 89.1 °F 100.2 °F 75.9 °F 65% 29.99 in 10.0 mi SW 5.8 mph - N/A   Scattered Clouds
12:53 PM 90.0 °F 99.0 °F 73.9 °F 59% 29.97 in 10.0 mi Variable 3.5 mph 16.1 mph N/A   Mostly Cloudy
1:53 PM 80.1 °F 83.6 °F 71.1 °F 74% 29.99 in 10.0 mi SE 27.6 mph 38.0 mph N/A Thunderstorm Mostly Cloudy
2:53 PM 75.0 °F - 72.0 °F 90% 29.98 in 7.0 mi ESE 5.8 mph - 0.23 in Rain Light Rain
3:53 PM 75.9 °F - 73.0 °F 91% 29.95 in 10.0 mi East 6.9 mph - 0.02 in Rain Light Rain
4:53 PM 79.0 °F - 73.9 °F 84% 29.94 in 10.0 mi ESE 8.1 mph - 0.01 in   Scattered Clouds
5:53 PM 81.0 °F 86.2 °F 73.9 °F 79% 29.94 in 10.0 mi ESE 12.7 mph - N/A   Clear
6:53 PM 80.1 °F 84.2 °F 73.0 °F 79% 29.93 in 10.0 mi SE 8.1 mph - N/A   Clear
7:53 PM 78.1 °F - 73.9 °F 87% 29.94 in 10.0 mi East 5.8 mph - N/A   Clear
8:53 PM 77.0 °F - 73.9 °F 90% 29.96 in 10.0 mi ENE 4.6 mph - N/A   Clear
9:53 PM 77.0 °F - 75.0 °F 94% 29.97 in 10.0 mi Calm Calm - N/A   Overcast
10:53 PM 78.1 °F - 75.0 °F 90% 29.97 in 10.0 mi ENE 3.5 mph - N/A   Mostly Cloudy
11:53 PM 77.0 °F - 73.9 °F 90% 29.96 in 10.0 mi NE 3.5 mph - N/A   Partly Cloudy